Hourly Weather Cedar Park

Today, 4 March, Thursday

Time Temperature Precipitation Wind Pressure Humidity
00:00 +11°C° 0 mm 4 mps 739 mmHg 84%
01:00 +10°C° 0 mm 4 mps 739 mmHg 86%
02:00 +10°C° 0 mm 3 mps 739 mmHg 89%
03:00 +9°C° 0 mm 3 mps 739 mmHg 89%
04:00 +9°C° 0 mm 2 mps 739 mmHg 88%
05:00 +9°C° 0 mm 2 mps 739 mmHg 88%
06:00 +10°C° 0 mm 3 mps 740 mmHg 82%
07:00 +11°C° 0 mm 3 mps 740 mmHg 76%
08:00 +13°C° 0 mm 4 mps 740 mmHg 70%
09:00 +15°C° 0 mm 4 mps 740 mmHg 64%
10:00 +18°C° 0 mm 4 mps 740 mmHg 57%
11:00 +20°C° 0 mm 5 mps 739 mmHg 50%
12:00 +21°C° 0 mm 5 mps 738 mmHg 49%
13:00 +21°C° 0 mm 5 mps 738 mmHg 47%
14:00 +22°C° 0 mm 6 mps 737 mmHg 46%
15:00 +21°C° 0 mm 5 mps 736 mmHg 50%
16:00 +20°C° 0 mm 5 mps 736 mmHg 55%
17:00 +19°C° 0 mm 4 mps 736 mmHg 59%
18:00 +18°C° 0 mm 4 mps 736 mmHg 64%
19:00 +15°C° 0 mm 4 mps 736 mmHg 69%
20:00 +14°C° 0 mm 4 mps 736 mmHg 73%
21:00 +14°C° 0 mm 4 mps 736 mmHg 77%
22:00 +13°C° 0 mm 4 mps 736 mmHg 80%
23:00 +12°C° 0 mm 4 mps 736 mmHg 84%

Tomorrow, 5 March, Friday

Time Temperature Precipitation Wind Pressure Humidity
00:00 +12°C° 0 mm 4 mps 735 mmHg 86%
01:00 +12°C° 0 mm 4 mps 735 mmHg 88%
02:00 +12°C° 0 mm 4 mps 735 mmHg 90%
03:00 +12°C° 0 mm 4 mps 735 mmHg 91%
04:00 +13°C° 0 mm 4 mps 735 mmHg 92%
05:00 +13°C° 0 mm 4 mps 735 mmHg 92%
06:00 +14°C° 0 mm 4 mps 735 mmHg 85%
07:00 +17°C° 0 mm 4 mps 735 mmHg 78%
08:00 +17°C° 0 mm 5 mps 736 mmHg 71%
09:00 +20°C° 0 mm 5 mps 736 mmHg 57%
10:00 +21°C° 0 mm 5 mps 735 mmHg 44%
11:00 +23°C° 0 mm 5 mps 735 mmHg 30%
12:00 +23°C° 0 mm 6 mps 735 mmHg 32%
13:00 +24°C° 0 mm 6 mps 735 mmHg 33%
14:00 +24°C° 0 mm 7 mps 734 mmHg 34%
15:00 +22°C° 0 mm 7 mps 735 mmHg 42%
16:00 +20°C° 0 mm 8 mps 735 mmHg 51%
17:00 +17°C° 0 mm 8 mps 736 mmHg 60%
18:00 +16°C° 0 mm 8 mps 737 mmHg 63%
19:00 +13°C° 0 mm 9 mps 737 mmHg 67%
20:00 +12°C° 0 mm 9 mps 738 mmHg 71%
21:00 +12°C° 0 mm 8 mps 738 mmHg 72%
22:00 +12°C° 0 mm 7 mps 739 mmHg 74%
23:00 +11°C° 0 mm 6 mps 739 mmHg 75%

Day after tomorrow, 6 March, Saturday

Time Temperature Precipitation Wind Pressure Humidity
00:00 +12°C° 0 mm 5 mps 739 mmHg 78%
01:00 +10°C° 0 mm 5 mps 740 mmHg 82%
02:00 +9°C° 0 mm 5 mps 740 mmHg 86%
03:00 +10°C° 0 mm 5 mps 740 mmHg 84%
04:00 +10°C° 0 mm 6 mps 741 mmHg 82%
05:00 +10°C° 0 mm 6 mps 741 mmHg 80%
06:00 +10°C° 0 mm 6 mps 742 mmHg 81%
07:00 +11°C° 0 mm 6 mps 742 mmHg 82%
08:00 +11°C° 0 mm 6 mps 743 mmHg 82%
09:00 +11°C° 0 mm 6 mps 743 mmHg 80%
10:00 +12°C° 0 mm 5 mps 743 mmHg 77%
11:00 +13°C° 0 mm 5 mps 743 mmHg 75%
12:00 +13°C° 0 mm 5 mps 743 mmHg 74%
13:00 +13°C° 0 mm 4 mps 742 mmHg 72%
14:00 +14°C° 0 mm 4 mps 741 mmHg 70%
15:00 +13°C° 0 mm 4 mps 741 mmHg 70%
16:00 +13°C° 0 mm 3 mps 741 mmHg 70%
17:00 +13°C° 0 mm 3 mps 741 mmHg 70%
18:00 +13°C° 0 mm 3 mps 741 mmHg 71%
19:00 +13°C° 0 mm 3 mps 742 mmHg 71%
20:00 +13°C° 0 mm 2 mps 742 mmHg 72%
21:00 +13°C° 0 mm 2 mps 742 mmHg 74%
22:00 +13°C° 0 mm 2 mps 742 mmHg 76%
23:00 +13°C° 0 mm 2 mps 742 mmHg 77%

7 March, Sunday

Time Temperature Precipitation Wind Pressure Humidity
00:00 +12°C° 0 mm 2 mps 742 mmHg 81%
01:00 +10°C° 0 mm 2 mps 742 mmHg 84%
02:00 +10°C° 0 mm 2 mps 742 mmHg 87%
03:00 +10°C° 0 mm 2 mps 742 mmHg 87%
04:00 +10°C° 0 mm 2 mps 743 mmHg 87%
05:00 +10°C° 0 mm 2 mps 743 mmHg 86%
06:00 +10°C° 0 mm 2 mps 744 mmHg 83%
07:00 +11°C° 0 mm 3 mps 744 mmHg 80%
08:00 +11°C° 0 mm 3 mps 745 mmHg 77%
09:00 +13°C° 0 mm 3 mps 745 mmHg 71%
10:00 +14°C° 0 mm 3 mps 745 mmHg 65%
11:00 +17°C° 0 mm 3 mps 745 mmHg 58%
12:00 +17°C° 0 mm 3 mps 744 mmHg 57%
13:00 +18°C° 0 mm 3 mps 744 mmHg 56%
14:00 +18°C° 0 mm 3 mps 743 mmHg 54%
15:00 +17°C° 0 mm 3 mps 743 mmHg 57%
16:00 +17°C° 0 mm 2 mps 743 mmHg 60%
17:00 +17°C° 0 mm 2 mps 743 mmHg 63%
18:00 +16°C° 0 mm 2 mps 744 mmHg 67%
19:00 +15°C° 0 mm 2 mps 744 mmHg 71%
20:00 +14°C° 0 mm 2 mps 744 mmHg 75%
21:00 +13°C° 0 mm 3 mps 744 mmHg 79%
22:00 +13°C° 0 mm 3 mps 744 mmHg 82%
23:00 +13°C° 0 mm 4 mps 745 mmHg 86%

8 March, Monday

Time Temperature Precipitation Wind Pressure Humidity
00:00 +12°C° 0 mm 3 mps 744 mmHg 88%
01:00 +11°C° 0 mm 3 mps 744 mmHg 90%
02:00 +10°C° 0 mm 3 mps 744 mmHg 92%
03:00 +10°C° 0 mm 3 mps 744 mmHg 90%
04:00 +10°C° 0 mm 3 mps 744 mmHg 89%
05:00 +10°C° 0 mm 2 mps 744 mmHg 87%
06:00 +10°C° 0 mm 3 mps 745 mmHg 84%
07:00 +11°C° 0 mm 3 mps 745 mmHg 81%
08:00 +12°C° 0 mm 3 mps 746 mmHg 78%
09:00 +13°C° 0 mm 3 mps 746 mmHg 74%
10:00 +15°C° 0 mm 4 mps 745 mmHg 71%
11:00 +17°C° 0 mm 4 mps 745 mmHg 67%
12:00 +18°C° 0 mm 4 mps 745 mmHg 64%
13:00 +20°C° 0 mm 5 mps 744 mmHg 62%
14:00 +21°C° 0 mm 5 mps 744 mmHg 59%
15:00 +20°C° 0.1 mm 5 mps 743 mmHg 65%
16:00 +20°C° 0.1 mm 5 mps 743 mmHg 71%
17:00 +19°C° 0.1 mm 5 mps 743 mmHg 77%
18:00 +17°C° 0 mm 6 mps 743 mmHg 79%
19:00 +17°C° 0 mm 6 mps 744 mmHg 82%
20:00 +16°C° 0 mm 6 mps 744 mmHg 84%
21:00 +16°C° 0 mm 7 mps 744 mmHg 85%
22:00 +15°C° 0 mm 7 mps 743 mmHg 86%
23:00 +15°C° 0 mm 7 mps 743 mmHg 87%

9 March, Tuesday

Time Temperature Precipitation Wind Pressure Humidity
00:00 +15°C° 0 mm 7 mps 743 mmHg 88%
01:00 +15°C° 0 mm 6 mps 742 mmHg 89%
02:00 +15°C° 0 mm 6 mps 742 mmHg 90%
03:00 +15°C° 0 mm 5 mps 742 mmHg 90%
04:00 +14°C° 0 mm 5 mps 742 mmHg 90%
05:00 +14°C° 0 mm 5 mps 742 mmHg 91%
06:00 +15°C° 0 mm 5 mps 742 mmHg 89%
07:00 +15°C° 0 mm 6 mps 742 mmHg 87%
08:00 +16°C° 0 mm 6 mps 742 mmHg 85%
09:00 +17°C° 0 mm 6 mps 742 mmHg 80%
10:00 +19°C° 0 mm 6 mps 742 mmHg 75%
11:00 +21°C° 0 mm 7 mps 742 mmHg 69%
12:00 +21°C° 0 mm 6 mps 741 mmHg 68%
13:00 +21°C° 0 mm 6 mps 740 mmHg 68%
14:00 +22°C° 0 mm 6 mps 740 mmHg 67%
15:00 +22°C° 0.1 mm 6 mps 739 mmHg 69%
16:00 +21°C° 0.1 mm 6 mps 739 mmHg 70%
17:00 +21°C° 0.1 mm 5 mps 739 mmHg 72%
18:00 +20°C° 0 mm 6 mps 739 mmHg 76%
19:00 +19°C° 0 mm 6 mps 739 mmHg 80%
20:00 +17°C° 0 mm 7 mps 739 mmHg 83%
21:00 +17°C° 0 mm 7 mps 739 mmHg 85%
22:00 +17°C° 0 mm 8 mps 739 mmHg 86%
23:00 +17°C° 0 mm 8 mps 738 mmHg 88%
Show more

We Need Your Consent

Meteoprog and our Service Providers may store and access personal data such as cookies, device identifiers or other similar technologies on your device and process such data to personalise content and ads, as well as provide social media features and to analyse the traffic.

  • Store and/or access information on your device

    Cookies, device identifiers or other information can be stored or accessed on your device for the purposes indicated above.

  • Personalised ads and content, ad and content measurement, audience insights, and products development

    Ads and content can be personalised based on a profile. More data can be added to better personalise ads and content. Ad and content performance can be measured. Insights about the audience who saw the ads and content can be derived. Such data can be used to develop or improve user’s experience, systems and software.

By clicking ‘I Agree’ you will allow the use of indicated cookies, device identifiers, web beacons or other similar technologies. Your settings can be changed in the browser on your device.

For certain purposes, legitimate interests may be relied on, rather than consent. You can read more about this in our Privacy and Cookie Policy.